Location: Helds Island Access
(38.5526°N, 91.5997°W)
Time: 16:44:12
(UTC-05:00)

Daily predictions for brighter satellites

Satellite Brightness Start Highest point End
(mag) Time Altitude Azimuth Time Altitude Azimuth Time Altitude Azimuth
Meteor 2-16 Rocket 4.4 19:56:53 10° S 20:02:54 71° E 20:08:58 10° NNE
Helios 1A 3.0 19:59:28 10° SSE 20:03:38 80° ENE 20:07:50 10° N
Cosmos 1461 2.9 20:05:50 10° NNW 20:09:52 82° WSW 20:13:47 10° SSE
Cosmos 2278 4.0 20:08:01 10° SSW 20:13:41 77° WNW 20:19:25 10° NNE
RESURS DK-1 4.0 20:12:52 10° N 20:15:55 19° NE 20:18:51 10° ESE
OTV 4 2.1 20:17:47 10° W 20:20:19 25° SSW 20:22:50 10° SE
OAO 2 Rocket 3.5 20:18:50 10° WSW 20:23:43 58° S 20:28:13 13° E
Cosmos 1980 Rocket 3.0 20:20:34 10° SSE 20:25:18 28° ESE 20:30:04 10° NE
USA 186 2.3 20:22:57 10° SE 20:25:43 32° ENE 20:28:18 10° N
ALOS 2.3 20:21:24 10° SSE 20:25:59 63° ENE 20:30:37 10° N
Cosmos 2369 4.2 20:23:01 10° SSW 20:28:38 65° WNW 20:34:19 10° NNE
H-2A R/B 3.0 20:25:28 10° SSE 20:29:15 52° ENE 20:33:06 10° N
Cosmos 1898 Rocket 3.9 20:27:20 10° N 20:32:26 46° ENE 20:37:06 12° SE
Cosmos 1605 Rocket 4.1 20:30:30 10° S 20:36:51 88° W 20:43:09 10° N
H-2A R/B 3.9 20:37:53 12° ENE 20:38:48 13° ENE 20:40:40 10° NE
FENGYUN 3A 3.6 20:33:50 10° SSE 20:39:10 83° ENE 20:44:33 10° N
Cosmos 2084 3.4 20:35:10 10° NNW 20:39:14 64° NE 20:42:27 17° SE
DELTA 2 R/B (1) 3.7 20:34:04 10° W 20:39:37 68° SSW 20:43:49 18° ESE
Cosmos 1656 3.7 20:34:54 10° SSW 20:40:31 89° ESE 20:46:07 10° NNE
Cosmos 468 Rocket 3.9 20:37:19 10° S 20:42:21 64° ESE 20:47:27 10° NNE
Cosmos 1626 Rocket 3.5 20:38:02 10° N 20:42:26 77° E 20:46:46 10° S
CZ-4B DEB 4.5 20:39:12 10° SSE 20:42:48 74° ENE 20:46:27 10° N
EO 1 Delta rocket 4.1 20:40:14 10° N 20:45:04 90° E 20:50:50 10° S
Cosmos 1455 Rocket 4.5 20:41:26 10° SSW 20:45:30 41° WNW 20:49:38 10° N
Cosmos 1975 2.9 20:41:54 10° S 20:46:00 85° W 20:50:08 10° N
CZ-3C R/B 4.2 19:41:09 10° W 20:47:09 39° SSW 20:55:36 13° SE
Cosmos 2100 Rocket 4.2 20:41:39 10° SSE 20:47:36 47° E 20:53:31 10° NNE
Cosmos 841 Rocket 4.3 20:43:11 10° SSE 20:47:37 29° E 20:52:02 10° NE
Tiangong 1 1.5 20:45:42 10° WNW 20:48:44 51° NNE 20:50:13 25° E
Cosmos 220 Rocket 4.1 20:45:50 10° NNW 20:50:02 73° WSW 20:54:14 10° S
Lacrosse 5 rocket 2.3 20:48:04 10° WNW 20:51:28 36° SW 20:54:20 13° S
Cosmos 1602 Rocket 3.6 20:48:13 10° N 20:52:41 81° W 20:57:05 10° S
CZ-2D R/B 3.6 20:49:38 10° S 20:53:28 67° WSW 20:57:22 10° NNW
Cosmos 1500 3.0 20:51:01 10° S 20:54:46 77° E 20:58:33 10° N
Cosmos 1814 Rocket 3.9 20:49:51 10° S 20:55:08 71° ESE 21:00:26 10° NNE
Cosmos 2227 Rocket 3.3 20:51:49 10° NW 20:57:09 43° WSW 21:02:26 10° S
Cosmos 2322 Rocket 3.6 21:00:47 19° E 21:00:47 19° E 21:03:32 10° NE
Cosmos 2061 Rocket 4.1 20:54:49 10° SSE 21:00:55 55° E 21:07:00 10° NNE
Cosmos 1340 3.5 21:00:11 10° NNE 21:03:36 31° ENE 21:03:55 31° E
Cosmos 2297 Rocket 3.2 21:06:41 10° NW 21:12:03 46° WSW 21:17:24 10° S
Cosmos 1459 Rocket 3.8 21:07:46 10° S 21:13:47 72° E 21:19:52 10° N
Cosmos 2360 4.2 21:10:43 10° S 21:16:15 55° ESE 21:21:51 10° NNE
Meteor 1-21 4.4 21:14:01 10° N 21:19:43 56° ENE 21:22:11 33° SE
Iridium 4 Rocket 3.9 21:16:33 10° N 21:21:21 55° W 21:25:43 10° SSW
Cosmos 2058 Rocket 3.7 21:22:25 36° E 21:22:25 36° E 21:26:12 10° NNE
Cosmos 2227 4.4 21:17:24 10° NNW 21:23:01 54° ENE 21:24:54 38° ESE
Cosmos 1606 Rocket 3.5 21:22:36 37° SSE 21:24:10 64° E 21:28:35 10° NNE
Cosmos 1939 Rocket 2.8 21:24:09 50° SE 21:25:06 70° ENE 21:29:16 10° N
Envisat 2.9 21:26:38 39° SE 21:28:29 70° ENE 21:33:33 10° N
Lacrosse 5 2.0 21:26:20 10° NW 21:31:23 70° SW 21:32:58 43° SSE
Cosmos 1937 Rocket 3.7 21:27:12 10° NNW 21:32:28 71° WSW 21:35:08 30° S
BREEZE-M DEB (TANK) 3.0 21:33:05 10° NW 21:35:26 38° NE 21:35:26 38° NE
Cosmos 1743 3.3 21:34:26 20° SSW 21:37:00 58° W 21:40:52 10° N
SPOT 5 3.0 21:38:12 51° E 21:38:35 52° ENE 21:43:14 10° N
Cosmos 990 Rocket 4.0 21:36:20 10° NNW 21:41:37 80° WSW 21:43:14 45° S
Cosmos 1697 Rocket 4.2 21:39:55 10° SW 21:45:05 36° WNW 21:50:18 10° N
Cosmos 1726 Rocket 3.5 21:46:07 62° SSW 21:46:49 83° W 21:51:14 10° N
ERS-1 Rocket 3.5 21:48:35 30° SSW 21:50:51 54° W 21:55:48 10° NNW
SL-08 R/B 4.4 21:50:02 29° S 21:53:28 88° E 21:59:40 10° N
RESURS DK-1 3.7 21:50:18 10° NW 21:54:03 34° WSW 21:54:48 31° SW
H-2A R/B 3.8 21:56:29 18° NE 21:56:29 18° NE 21:58:43 10° NNE
Cosmos 1802 Rocket 4.5 21:50:05 10° SSW 21:56:24 62° W 22:02:47 10° N
SL-16 R/B 2.3 21:57:52 55° ENE 21:57:52 55° ENE 22:02:40 10° NNE
ARGOS 3.7 21:57:43 42° ENE 21:57:43 42° ENE 22:02:23 10° N
Terra 4.0 21:59:15 14° NE 21:59:15 14° NE 22:00:35 10° NNE
Cosmos 836 Rocket 4.5 21:58:49 40° SSW 22:00:46 83° WNW 22:06:06 10° NNE
Cosmos 2016 Rocket 4.3 21:58:34 15° SSW 22:03:44 64° W 22:09:55 10° N
Cosmos 1763 Rocket 4.5 21:59:58 10° SW 22:04:50 45° WNW 22:09:42 10° N
MetOp-B 4.0 22:07:20 84° SE 22:07:29 87° ENE 22:12:52 10° NNW
OAO 2 Rocket 4.2 22:03:27 10° W 22:07:11 39° SW 22:07:11 39° SW
Cosmos 1980 Rocket 3.6 22:03:50 10° SW 22:09:05 38° WNW 22:14:24 10° N
SPOT 1/Viking Rocket 3.8 22:15:02 58° NNE 22:15:02 58° NNE 22:19:27 10° N
H-2A R/B 2.9 22:15:02 44° WNW 22:15:02 44° WNW 22:18:24 10° NNW
Cosmos 2098 Rocket 4.2 22:12:46 27° SSW 22:16:35 67° W 22:22:15 10° N
Cosmos 2228 4.4 22:20:02 34° N 22:20:02 34° N 22:22:33 10° N
Cosmos 1125 Rocket 3.7 22:15:34 10° NNW 22:20:07 68° NNW 22:20:07 68° NNW
USA 245 4.3 22:22:53 84° SSE 22:23:08 89° E 22:29:30 10° NNW
USA 215 4.3 22:21:34 29° NE 22:23:15 34° NNE 22:28:58 10° NNW
SL-19 R/B 4.4 22:20:29 10° NNE 22:24:56 61° N 22:24:56 61° N
BREEZE-M DEB (TANK) 3.9 22:15:47 10° W 22:26:33 52° NNW 22:27:44 42° NNE
BREEZE-M DEB (TANK) 4.0 22:13:17 10° WNW 22:30:50 61° NNE 22:31:50 55° ENE
Cosmos 2263 Rocket 2.9 22:30:25 10° NNW 22:34:32 45° NNE 22:34:32 45° NNE
Cosmos 2322 Rocket 2.9 22:42:28 48° W 22:43:08 51° WNW 22:48:36 10° NNE
Meteor 2-5 Rocket 4.5 22:46:03 10° N 22:50:21 50° N 22:50:21 50° N
ATLAS CENTAUR R/B 4.4 23:16:15 57° ENE 23:16:15 57° ENE 23:33:00 10° NE
H-2A R/B 4.2 23:37:08 21° NW 23:37:08 21° NW 23:38:56 10° NNW
Terra 4.3 23:38:08 19° NNW 23:38:08 19° NNW 23:39:33 10° NNW
SL-16 R/B 4.5 23:39:36 16° W 23:41:37 20° NW 23:45:40 10° N
Cosmos 2360 Rocket 4.2 23:56:06 24° NNW 23:56:06 24° NNW 23:58:40 10° N
